Weather History for Kiana, AK

Change the Weather History Date:

Tuesday, October 23, 2012

  Actual Average (PASK) Record (PASK)
Temperature  
Mean Temperature 23 °F -  
Max Temperature 19 °F 19 °F 37 °F (2002)
Min Temperature 16 °F 12 °F -2 °F (1997)
Degree Days  
Heating Degree Days 42    
Moisture  
Dew Point 16 °F    
Average Humidity 75    
Maximum Humidity 89    
Minimum Humidity 61    
Precipitation  
Precipitation 0.00 in - - ()
Sea Level Pressure  
Sea Level Pressure 30.78 in    
Wind  
Wind Speed 1 mph (NW)    
Max Wind Speed 6 mph    
Max Gust Speed -    
Visibility 10 miles    
Events      
Averages and records for this station are not official NWS values.
T = Trace of Precipitation, MM = Missing Value Source: NWS Daily Summary

Daily Weather History Graph

Daily Weather History Graph

Search for Another Location

Airport:

Trip Planner

Search our weather history database for the weather conditions in past years. The results will help you decide how hot, cold, wet, or windy it might be!

Date:

Astronomy

Oct. 23, 2012 Rise Set
Actual Time 10:13 AM AKDT 6:37 PM AKDT
Civil Twilight 9:15 AM AKDT 7:34 PM AKDT
Nautical Twilight 8:13 AM AKDT 8:36 PM AKDT
Astronomical Twilight 7:11 AM AKDT 9:38 PM AKDT
Moon 5:34 PM AKDT (10/23) 1:50 AM AKDT (10/23)
Length of Visible Light 10h 19m
Length of Day
8h 24m
Waxing Gibbous, 68% of the Moon is Illuminated
Oct 23
Waxing Gibbous
Oct 29
Full
Nov 6
Last Quarter
Nov 13
New
Nov 20
First Quarter

Hourly Weather History & Observations

Time (AKDT) Temp. Windchill Dew Point Humidity Pressure Visibility Wind Dir Wind Speed Gust Speed Precip Events Conditions
12:01 AM 24.1 °F - 15.1 °F 69% 30.73 in 10.0 mi Calm Calm - N/A   Overcast
12:42 AM 23.0 °F - 14.0 °F 68% 30.61 in 10.0 mi Calm Calm - N/A   Scattered Clouds
1:01 AM 21.9 °F - 14.0 °F 72% 30.75 in 10.0 mi Calm Calm - N/A   Clear
2:01 AM 19.9 °F - 12.0 °F 71% 30.76 in 10.0 mi Calm Calm - N/A   Scattered Clouds
2:09 AM 19.4 °F - 12.2 °F 74% 30.62 in 10.0 mi Calm Calm - N/A   Mostly Cloudy
3:01 AM 21.0 °F - 14.0 °F 74% 30.75 in 10.0 mi Calm Calm - N/A   Overcast
4:01 AM 21.9 °F - 15.1 °F 75% 30.76 in 10.0 mi Calm Calm - N/A   Overcast
5:01 AM 23.0 °F - 16.0 °F 74% 30.76 in 10.0 mi Calm Calm - N/A   Overcast
6:01 AM 23.0 °F - 18.0 °F 81% 30.77 in 10.0 mi Calm Calm - N/A   Overcast
7:01 AM 21.9 °F - 16.0 °F 78% 30.77 in 10.0 mi Calm Calm - N/A   Overcast
7:28 AM 21.2 °F - 14.0 °F 74% 30.64 in 10.0 mi Calm Calm - N/A   Scattered Clouds
8:01 AM 19.9 °F 14.9 °F 14.0 °F 78% 30.79 in 10.0 mi WNW 3.5 mph - N/A   Clear
9:01 AM 19.9 °F 12.1 °F 15.1 °F 81% 30.79 in 10.0 mi WNW 5.8 mph - N/A   Clear
10:01 AM 16.0 °F 10.4 °F 12.0 °F 84% 30.82 in 10.0 mi NW 3.5 mph - N/A   Clear
11:01 AM 19.0 °F 12.3 °F 14.0 °F 81% 30.81 in 10.0 mi WNW 4.6 mph - N/A   Clear
12:01 PM 21.9 °F 15.7 °F 17.1 °F 82% 30.81 in 10.0 mi NNW 4.6 mph - N/A   Clear
1:01 PM 26.1 °F - 18.0 °F 71% 30.83 in 10.0 mi Calm Calm - N/A   Clear
2:01 PM 28.0 °F - 18.0 °F 66% 30.83 in 7.0 mi Calm Calm - N/A   Clear
3:01 PM 30.9 °F - 19.0 °F 61% 30.83 in 10.0 mi Calm Calm - N/A   Clear
4:01 PM 28.9 °F - 19.0 °F 67% 30.82 in 10.0 mi Calm Calm - N/A   Clear
5:01 PM 28.9 °F 23.9 °F 19.0 °F 67% 30.82 in 10.0 mi North 4.6 mph - N/A   Clear
5:23 PM 28.4 °F - 19.4 °F 69% 30.69 in 10.0 mi Calm Calm - N/A   Partly Cloudy
6:01 PM 26.1 °F - 18.0 °F 71% 30.83 in 10.0 mi Calm Calm - N/A   Clear
7:01 PM 23.0 °F - 16.0 °F 74% 30.84 in 7.0 mi Calm Calm - N/A   Clear
8:01 PM 21.9 °F - 17.1 °F 82% 30.85 in 10.0 mi Calm Calm - N/A   Clear
9:01 PM 23.0 °F - 18.0 °F 81% 30.86 in 10.0 mi Calm Calm - N/A   Clear
10:01 PM 21.0 °F - 18.0 °F 88% 30.86 in 10.0 mi Calm Calm - N/A   Clear
11:01 PM 21.9 °F - 19.0 °F 89% 30.87 in 10.0 mi Calm Calm - N/A   Clear